WA2TQI Weather Reports


time (UTC)temp
F
wind
direction
speed
knots
gust
knots
rain 1hr
in
rain 24hr
in
rain mn
in
humidity
%
barometer
mb
20260506192535 67 236 4.3 9.6 0.00 0.01 0.01 88 1009.0
20260506192030 67 201 3.5 8.7 0.00 0.01 0.01 88 1009.0
20260506191527 67 283 0.9 7.0 0.00 0.01 0.01 88 1009.0
20260506191024 67 197 4.3 7.0 0.00 0.01 0.01 88 1009.0
20260506190521 67 182 1.7 7.0 0.00 0.01 0.01 88 1009.0
20260506190019 67 210 3.5 7.8 0.00 0.01 0.01 89 1008.8
20260506185515 66 243 1.7 3.5 0.00 0.01 0.01 89 1008.9
20260506185011 66 274 2.6 8.7 0.00 0.01 0.01 89 1009.0
20260506184509 66 142 2.6 3.5 0.00 0.01 0.01 90 1009.1
20260506184006 66 123 0.9 5.2 0.00 0.01 0.01 90 1009.1
20260506183501 66 187 4.3 6.1 0.00 0.01 0.01 90 1009.2
20260506182959 66 180 0.9 8.7 0.00 0.01 0.01 91 1009.4
20260506182456 65 189 5.2 7.0 0.00 0.01 0.01 91 1009.5
20260506181953 65 199 2.6 5.2 0.00 0.01 0.01 91 1009.5
20260506181451 66 248 4.3 8.7 0.00 0.01 0.01 90 1009.3
20260506180947 66 133 2.6 11.3 0.00 0.01 0.01 89 1009.5
20260506180444 67 107 6.1 11.3 0.00 0.01 0.01 88 1009.4
20260506175941 67 102 4.3 9.6 0.00 0.01 0.01 86 1009.3
20260506175437 67 157 0.0 7.8 0.00 0.01 0.01 87 1009.4
20260506174934 66 208 1.7 6.1 0.00 0.01 0.01 87 1009.4
20260506174432 67 226 0.0 3.5 0.00 0.01 0.01 87 1009.6
20260506173929 67 145 2.6 7.0 0.00 0.01 0.01 86 1009.6
20260506173426 67 187 1.7 3.5 0.00 0.01 0.01 86 1009.5
20260506172923 67 221 9.6 15.6 0.00 0.01 0.01 86 1009.7
20260506172420 67 146 0.9 5.2 0.00 0.01 0.01 87 1009.5
20260506171916 67 184 4.3 5.2 0.00 0.01 0.01 87 1009.8
20260506171414 67 145 5.2 8.7 0.00 0.01 0.01 86 1009.7
20260506170912 66 159 5.2 12.2 0.00 0.01 0.01 88 1009.7
20260506170408 67 280 0.9 3.5 0.00 0.01 0.01 89 1009.7
20260506165907 67 247 6.1 7.8 0.00 0.01 0.01 89 1010.0
20260506165405 67 274 0.9 5.2 0.00 0.01 0.01 88 1009.9
20260506164900 67 99 5.2 12.2 0.05 0.01 0.01 85 1010.0
20260506164357 68 175 4.3 7.8 0.05 0.01 0.01 86 1009.9
20260506163855 68 57 4.3 8.7 0.00 0.00 0.00 87 1010.0
20260506163350 67 139 1.7 11.3 0.00 0.00 0.00 87 1010.1
20260506162845 68 180 4.3 9.6 0.00 0.00 0.00 83 1010.3
20260506162343 68 231 1.7 3.5 0.00 0.00 0.00 82 1010.5
20260506161840 68 140 2.6 2.6 0.00 0.00 0.00 84 1010.8
20260506161337 68 209 2.6 3.5 0.00 0.00 0.00 82 1010.8
20260506160835 68 241 1.7 7.0 0.00 0.00 0.00 81 1011.0
20260506160331 68 174 1.7 1.7 0.00 0.00 0.00 82 1011.1
20260506155830 68 193 5.2 8.7 0.00 0.00 0.00 80 1011.0
20260506155326 68 277 1.7 3.5 0.00 0.00 0.00 81 1011.2
20260506153439 68 135 3.5 7.8 0.00 0.00 0.00 78 1010.9
20260506152936 69 180 3.5 7.0 0.00 0.00 0.00 79 1010.8
20260506152433 69 203 8.7 11.3 0.00 0.00 0.00 76 1010.8
20260506151932 69 174 1.7 5.2 0.00 0.00 0.00 75 1011.0
20260506151428 69 122 2.6 7.0 0.00 0.00 0.00 75 1011.0
20260506150926 70 213 1.7 7.0 0.00 0.00 0.00 74 1010.7
20260506150422 70 200 4.3 6.1 0.00 0.00 0.00 73 1010.7
20260506145919 70 193 4.3 8.7 0.00 0.00 0.00 72 1011.0
20260506145415 70 164 1.7 5.2 0.00 0.00 0.00 73 1010.9
20260506144913 70 57 0.9 3.5 0.00 0.00 0.00 74 1011.1
20260506144409 69 144 2.6 3.5 0.00 0.00 0.00 74 1011.0
20260506143908 69 59 1.7 2.6 0.00 0.00 0.00 74 1011.2
20260506143404 69 157 3.5 7.8 0.00 0.00 0.00 74 1011.3
20260506142902 69 249 4.3 6.1 0.00 0.00 0.00 74 1011.3
20260506142400 69 232 5.2 7.8 0.00 0.00 0.00 73 1011.2
20260506141858 69 186 3.5 8.7 0.00 0.00 0.00 73 1011.2
20260506141356 70 202 6.1 8.7 0.00 0.00 0.00 73 1010.9
20260506140854 70 245 1.7 5.2 0.00 0.00 0.00 73 1011.1
20260506140350 70 226 2.6 5.2 0.00 0.00 0.00 73 1010.9
20260506135847 70 279 7.0 12.2 0.00 0.00 0.00 74 1010.9
20260506135344 69 99 1.7 2.6 0.00 0.00 0.00 75 1010.9
20260506134840 69 135 4.3 6.1 0.00 0.00 0.00 75 1010.9
20260506134337 68 217 4.3 7.0 0.00 0.00 0.00 76 1010.9
20260506133834 68 222 3.5 13.0 0.00 0.00 0.00 76 1010.9
20260506133331 68 177 3.5 6.1 0.00 0.00 0.00 76 1010.8
20260506132827 68 141 1.7 2.6 0.00 0.00 0.00 77 1011.0
20260506132325 68 133 3.5 11.3 0.00 0.00 0.00 76 1010.9
20260506131822 69 254 2.6 7.8 0.00 0.00 0.00 75 1011.2
20260506131318 69 176 2.6 7.8 0.00 0.00 0.00 75 1011.1
20260506130816 68 193 2.6 5.2 0.00 0.00 0.00 76 1011.1
20260506130312 68 202 3.5 8.7 0.00 0.00 0.00 76 1011.0
20260506125810 69 180 7.8 9.6 0.00 0.00 0.00 75 1010.9
20260506125308 69 192 1.7 7.8 0.00 0.00 0.00 76 1011.0
20260506124807 69 225 6.1 8.7 0.00 0.00 0.00 75 1011.2
20260506124303 69 188 2.6 7.0 0.00 0.00 0.00 76 1011.2
20260506123801 68 194 4.3 11.3 0.00 0.00 0.00 76 1011.2
20260506123259 68 193 3.5 9.6 0.00 0.00 0.00 78 1011.1
20260506122755 68 170 2.6 11.3 0.00 0.00 0.00 78 1011.2
20260506122253 68 187 2.6 11.3 0.00 0.00 0.00 78 1011.1
20260506121751 67 176 4.3 7.8 0.00 0.00 0.00 79 1011.0
20260506121248 67 241 0.9 7.0 0.00 0.00 0.00 79 1011.2
20260506120745 67 142 3.5 7.8 0.00 0.00 0.00 80 1011.1
20260506120243 65 162 2.6 5.2 0.00 0.00 0.00 82 1011.2
20260506115740 65 174 1.7 7.0 0.00 0.00 0.00 84 1011.3
20260506115238 65 125 3.5 9.6 0.00 0.00 0.00 83 1011.3
20260506114736 65 113 1.7 5.2 0.00 0.00 0.00 83 1011.2
20260506114233 65 162 1.7 6.1 0.00 0.00 0.00 84 1011.3
20260506113731 65 129 0.9 5.2 0.00 0.00 0.00 84 1011.2
20260506113228 65 184 2.6 7.0 0.00 0.00 0.00 84 1011.2
20260506112724 65 95 4.3 7.0 0.00 0.00 0.00 84 1011.3
20260506112222 65 201 1.7 7.0 0.00 0.00 0.00 84 1011.3
20260506111720 65 203 7.8 11.3 0.00 0.00 0.00 84 1011.2
20260506111218 65 121 1.7 7.0 0.00 0.00 0.00 84 1011.5
20260506110714 65 139 0.9 3.5 0.00 0.00 0.00 84 1011.4
20260506110212 65 195 5.2 7.8 0.00 0.00 0.00 84 1011.3
20260506105708 64 205 4.3 6.1 0.00 0.00 0.00 86 1011.2
20260506105205 64 219 4.3 13.0 0.00 0.00 0.00 86 1011.3
20260506104704 64 180 2.6 9.6 0.00 0.00 0.00 86 1011.2
20260506104201 64 108 0.9 5.2 0.00 0.00 0.00 86 1011.2
20260506103657 64 204 2.6 7.0 0.00 0.00 0.00 86 1011.2
20260506103155 64 123 4.3 5.2 0.00 0.00 0.00 87 1011.1
20260506102653 64 79 4.3 9.6 0.00 0.00 0.00 87 1011.2
20260506102150 64 185 5.2 7.0 0.00 0.00 0.00 88 1011.2
20260506101646 64 206 1.7 5.2 0.00 0.00 0.00 88 1011.4
20260506101143 64 233 3.5 6.1 0.00 0.00 0.00 88 1011.5
20260506100642 64 173 4.3 5.2 0.00 0.00 0.00 88 1011.4
20260506100140 64 197 5.2 8.7 0.00 0.00 0.00 88 1011.4
20260506095638 64 177 0.9 5.2 0.00 0.00 0.00 88 1011.3
20260506095134 64 160 2.6 6.1 0.00 0.00 0.00 88 1011.2
20260506094632 64 163 2.6 6.1 0.00 0.00 0.00 88 1011.1
20260506094130 64 226 1.7 5.2 0.00 0.00 0.00 88 1011.1
20260506093628 64 189 1.7 11.3 0.00 0.00 0.00 88 1011.1
20260506093124 64 213 2.6 7.8 0.00 0.00 0.00 88 1011.0
20260506092623 64 193 1.7 7.8 0.00 0.00 0.00 88 1011.1
20260506092119 64 237 1.7 6.1 0.00 0.00 0.00 88 1011.1
20260506091617 64 155 1.7 5.2 0.00 0.00 0.00 88 1011.1
20260506091114 64 236 3.5 5.2 0.00 0.00 0.00 88 1011.2
20260506090613 64 217 3.5 12.2 0.00 0.00 0.00 87 1011.1
20260506090108 64 241 2.6 8.7 0.00 0.00 0.00 87 1011.3
20260506085605 64 172 3.5 7.0 0.00 0.00 0.00 88 1011.2
20260506085102 64 196 5.2 6.1 0.00 0.00 0.00 88 1011.3
20260506084559 65 170 0.9 8.7 0.00 0.00 0.00 87 1011.2
20260506084055 65 174 2.6 3.5 0.00 0.00 0.00 88 1011.1
20260506083552 65 148 2.6 7.8 0.00 0.00 0.00 87 1011.4
20260506083049 65 169 5.2 8.7 0.00 0.00 0.00 87 1011.4
20260506082546 65 146 3.5 7.0 0.00 0.00 0.00 88 1011.3
20260506082042 65 212 1.7 5.2 0.00 0.00 0.00 88 1011.3
20260506081540 65 205 3.5 6.1 0.00 0.00 0.00 87 1011.4
20260506081037 65 244 3.5 11.3 0.00 0.00 0.00 86 1011.3
20260506080535 65 224 1.7 7.0 0.00 0.00 0.00 87 1011.3
20260506073518 65 143 2.6 7.0 0.00 0.00 0.00 86 1011.4
20260506073015 66 210 0.9 5.2 0.00 0.00 0.00 86 1011.4
20260506072512 66 108 1.7 5.2 0.00 0.00 0.00 86 1011.5
20260506072010 65 99 1.7 5.2 0.00 0.00 0.00 86 1011.3
20260506071508 66 151 2.6 5.2 0.00 0.00 0.00 86 1011.4
20260506071005 66 151 0.9 2.6 0.00 0.00 0.00 86 1011.5
20260506070502 66 154 1.7 5.2 0.00 0.00 0.00 86 1011.6
20260506062439 66 81 0.0 3.5 0.00 0.00 0.00 86 1011.7
20260506061935 66 217 1.7 8.7 0.00 0.00 0.00 85 1011.6
20260506061432 66 178 1.7 6.1 0.00 0.00 0.00 85 1011.6
20260506060930 66 209 7.0 7.8 0.00 0.00 0.00 85 1011.6
20260506060428 66 170 4.3 6.1 0.00 0.00 0.00 85 1011.7
20260506051400 67 175 2.6 7.0 0.00 0.00 0.00 82 1011.8
20260506050857 67 145 0.9 9.6 0.00 0.00 0.00 82 1011.8
20260506050354 67 235 3.5 5.2 0.00 0.00 0.00 82 1012.1
20260506044845 67 194 1.7 5.2 0.00 0.00 0.00 82 1012.1
20260506044343 68 151 3.5 11.3 0.00 0.00 0.00 81 1011.9
20260506043839 67 161 2.6 7.8 0.00 0.00 0.00 81 1012.0
20260506043337 68 174 3.5 5.2 0.00 0.00 0.00 81 1012.0
20260506042835 68 136 7.8 9.6 0.00 0.00 0.00 80 1012.0
20260506042334 68 203 1.7 7.8 0.00 0.00 0.00 80 1012.2
20260506041832 67 169 6.1 8.7 0.00 0.00 0.00 80 1012.1
20260506041329 68 169 3.5 7.8 0.00 0.00 0.00 80 1012.1
20260506040826 68 194 2.6 6.1 0.00 0.00 0.00 80 1012.0
20260506040323 68 196 3.5 5.2 0.00 0.00 0.00 79 1012.1
20260506035819 68 198 6.1 12.2 0.00 0.00 0.00 79 1012.0
20260506035317 68 187 4.3 7.0 0.00 0.00 0.00 78 1011.9
20260506034814 68 177 2.6 8.7 0.00 0.00 0.00 78 1012.0
20260506034311 68 178 4.3 7.8 0.00 0.00 0.00 78 1012.1
20260506033808 68 248 4.3 9.6 0.00 0.00 0.00 77 1011.8
20260506033305 68 220 2.6 8.7 0.00 0.00 0.00 77 1012.1
20260506032802 68 240 4.3 7.0 0.00 0.00 0.00 77 1011.9
20260506032259 68 184 1.7 5.2 0.00 0.00 0.00 77 1012.0
20260506031755 69 191 7.0 13.9 0.00 0.00 0.00 76 1012.0
20260506031253 69 243 3.5 7.0 0.00 0.00 0.00 75 1012.0
20260506030751 69 235 5.2 12.2 0.00 0.00 0.00 75 1012.1
20260506030248 69 128 0.9 7.0 0.00 0.00 0.00 76 1012.2
20260506025745 69 122 6.1 11.3 0.00 0.00 0.00 75 1012.0
20260506025241 69 209 4.3 9.6 0.00 0.00 0.00 74 1012.0
20260506024738 69 266 5.2 8.7 0.00 0.00 0.00 74 1012.2
20260506024235 69 214 0.9 7.0 0.00 0.00 0.00 73 1012.1
20260506023731 69 226 3.5 8.7 0.00 0.00 0.00 73 1012.1
20260506023228 70 201 3.5 7.8 0.00 0.00 0.00 72 1012.1
20260506022725 70 156 7.8 12.2 0.00 0.00 0.00 71 1011.9
20260506022223 70 210 7.8 11.3 0.00 0.00 0.00 71 1012.1
20260506021721 70 152 4.3 7.0 0.00 0.00 0.00 70 1011.9
20260506021218 70 184 7.0 8.7 0.00 0.00 0.00 70 1012.1
20260506020714 70 146 1.7 7.0 0.00 0.00 0.00 70 1012.1
20260506020212 70 170 4.3 7.8 0.00 0.00 0.00 69 1012.0
20260506015709 71 204 2.6 7.8 0.00 0.00 0.00 68 1012.0
20260506015207 71 190 3.5 7.8 0.00 0.00 0.00 68 1011.8
20260506014704 71 205 2.6 13.0 0.00 0.00 0.00 68 1011.8
20260506014159 71 160 2.6 5.2 0.00 0.00 0.00 68 1011.7
20260506013658 71 118 3.5 5.2 0.00 0.00 0.00 68 1011.8
20260506013154 71 136 1.7 5.2 0.00 0.00 0.00 68 1011.8
20260506012650 71 204 2.6 5.2 0.00 0.00 0.00 68 1011.7
20260506012147 71 168 4.3 5.2 0.00 0.00 0.00 68 1011.8
20260506011645 71 151 0.9 7.8 0.00 0.00 0.00 68 1011.7
20260506011141 71 140 2.6 7.0 0.00 0.00 0.00 68 1011.6
20260506010640 71 176 2.6 6.1 0.00 0.00 0.00 67 1011.5
20260506010137 71 188 4.3 7.8 0.00 0.00 0.00 67 1011.5
20260506005633 71 183 5.2 7.0 0.00 0.00 0.00 67 1011.6
20260506005130 71 125 1.7 7.0 0.00 0.00 0.00 67 1011.7
20260506004626 71 178 1.7 5.2 0.00 0.00 0.00 68 1011.5
20260506004124 71 158 4.3 12.2 0.00 0.00 0.00 68 1011.5
20260506003620 72 150 6.1 7.0 0.00 0.00 0.00 67 1011.3
20260506003116 72 165 1.7 7.0 0.00 0.00 0.00 67 1011.3
20260506002612 72 129 3.5 7.0 0.00 0.00 0.00 66 1011.2
20260506002108 73 162 1.7 5.2 0.00 0.00 0.00 64 1011.2
20260506001605 73 182 0.9 3.5 0.00 0.00 0.00 62 1011.1
20260506001102 74 123 3.5 5.2 0.00 0.00 0.00 61 1011.0
20260506000559 74 186 3.5 7.0 0.00 0.00 0.00 59 1010.9
20260506000056 75 215 0.0 2.6 0.00 0.00 0.00 58 1011.0
20260505235554 75 177 3.5 11.3 0.00 0.00 0.00 57 1010.9
20260505235051 76 228 1.7 3.5 0.00 0.00 0.00 56 1010.8
20260505234548 76 249 5.2 7.8 0.00 0.00 0.00 55 1011.0
20260505234045 76 175 3.5 9.6 0.00 0.00 0.00 54 1010.9
20260505233542 77 208 6.1 7.0 0.00 0.00 0.00 53 1010.8
20260505233040 77 130 2.6 7.8 0.00 0.00 0.00 52 1010.6
20260505232537 78 163 2.6 3.5 0.00 0.00 0.00 50 1010.6
20260505232035 78 109 3.5 5.2 0.00 0.00 0.00 50 1010.4
20260505231531 78 121 0.9 7.0 0.00 0.00 0.00 50 1010.3
20260505231030 78 210 1.7 7.8 0.00 0.00 0.00 49 1010.5
20260505230527 78 154 3.5 6.1 0.00 0.00 0.00 50 1010.4
20260505230024 79 52 0.9 2.6 0.00 0.00 0.00 49 1010.3
20260505225520 79 194 3.5 7.0 0.00 0.00 0.00 49 1010.3
20260505225016 79 189 6.1 13.9 0.00 0.00 0.00 49 1010.4
20260505224514 79 149 3.5 7.0 0.00 0.00 0.00 49 1010.4
20260505224011 79 201 4.3 14.8 0.00 0.00 0.00 49 1010.4
20260505223508 80 117 2.6 11.3 0.00 0.00 0.00 48 1010.2
20260505223004 80 319 3.5 13.9 0.00 0.00 0.00 48 1010.2
20260505222501 80 184 7.0 7.8 0.00 0.00 0.00 48 1010.4
20260505221956 80 88 5.2 11.3 0.00 0.00 0.00 48 1010.3
20260505221454 80 150 1.7 8.7 0.00 0.00 0.00 48 1010.2
20260505220950 80 224 9.6 20.9 0.00 0.00 0.00 47 1010.4
20260505220447 81 189 6.1 11.3 0.00 0.00 0.00 48 1010.0
20260505215945 81 164 5.2 7.8 0.00 0.00 0.00 47 1010.1
20260505215443 82 237 6.1 12.2 0.00 0.00 0.00 46 1010.2
20260505214941 82 182 2.6 5.2 0.00 0.00 0.00 46 1010.0
20260505214438 82 216 7.0 11.3 0.00 0.00 0.00 45 1010.3
20260505213935 82 177 5.2 13.9 0.00 0.00 0.00 45 1009.9
20260505213433 82 188 8.7 12.2 0.00 0.00 0.00 44 1010.0
20260505212929 82 155 5.2 7.8 0.00 0.00 0.00 44 1010.0
20260505212426 82 211 5.2 11.3 0.00 0.00 0.00 43 1010.0
20260505211922 83 124 9.6 12.2 0.00 0.00 0.00 42 1009.8
20260505211420 83 134 0.9 2.6 0.00 0.00 0.00 42 1009.9
20260505210916 83 195 5.2 9.6 0.00 0.00 0.00 40 1009.6
20260505210423 83 187 5.2 9.6 0.00 0.00 0.00 41 1009.8
20260505205910 83 4 4.3 7.8 0.00 0.00 0.00 41 1009.8
20260505205409 83 204 1.7 7.8 0.00 0.00 0.00 41 1009.6
20260505204905 83 247 6.1 11.3 0.00 0.00 0.00 40 1009.7
20260505204403 83 57 1.7 5.2 0.00 0.00 0.00 40 1009.6
20260505203900 83 63 2.6 8.7 0.00 0.00 0.00 39 1009.9
20260505203356 83 155 1.7 7.0 0.00 0.00 0.00 39 1009.6
20260505202853 83 26 1.7 7.0 0.00 0.00 0.00 39 1009.7
20260505202349 83 192 3.5 11.3 0.00 0.00 0.00 42 1009.4
20260505201846 83 153 5.2 13.9 0.00 0.00 0.00 44 1009.5
20260505201343 84 149 7.0 14.8 0.00 0.00 0.00 44 1009.6
20260505200842 84 165 2.6 7.0 0.00 0.00 0.00 43 1009.7
20260505200338 83 161 3.5 13.0 0.00 0.00 0.00 45 1009.6
20260505195833 83 191 13.9 20.0 0.00 0.00 0.00 45 1009.7
20260505195331 84 177 7.0 12.2 0.00 0.00 0.00 45 1009.6
20260505194828 84 103 1.7 3.5 0.00 0.00 0.00 46 1009.8
20260505194325 83 50 5.2 7.8 0.00 0.00 0.00 45 1009.7
20260505193820 83 226 6.1 13.0 0.00 0.00 0.00 46 1010.0
20260505193318 85 180 5.2 7.0 0.00 0.00 0.00 45 1010.0